Regional Weather Roundup
Issued by NWS

Home | Current Version | Previous Version | Text Only | Print | Product List | Glossary On
Versions: 1 2 3 4 5 6 7 8 9 10 11 12 13 14 15 16 17 18 19 20 21 22 23 24 25 26 27 28 29 30 31 32 33 34 35 36 37 38 39 40 41 42 43 44 45 46 47 48 49 50
000
ASUS42 KFFC 240303
RWRGA
WEATHER ROUNDUP FOR GEORGIA
NATIONAL WEATHER SERVICE PEACHTREE CITY GA
1100 PM EDT WED JUL 23 2014

NOTE: "FAIR" INDICATES FEW OR NO CLOUDS BELOW 12,000 FEET WITH NO
SIGNIFICANT WEATHER AND/OR OBSTRUCTIONS TO VISIBILITY.

* = USE WITH CAUTION. THE STATIONS MARKED WITH AN ASTERISK MAY NOT
REPORT WEATHER SUCH AS PRECIPITATION, FOG, OR THUNDER AND ARE NOT
QUALITY CONTROLLED BY NWS.

THE REMARK "TC" DENOTES TEMPERATURE READING IN DEGREES CELSIUS.

GAZ001>058-240400-
NORTH GEORGIA

CITY           SKY/WX    TMP DP  RH WIND       PRES   REMARKS
ATLANTA        PTCLDY    77  70  79 W5        30.01R
ATHENS         MOCLDY    76  73  91 CALM      30.00S
CHAMBLEE       CLEAR     75  71  87 CALM      30.01R
PEACHTREE CITY MOCLDY    77  72  84 CALM      30.02R
ROME           CLEAR     74  73  97 NW3       30.00R
WEST ATLANTA   MOCLDY    77  73  87 CALM      30.00S
GAINESVILLE    CLEAR     75  70  84 CALM      30.04R
CARTERSVILLE   CLEAR     75  71  87 CALM      30.01R


CITY           SKY/WX    TMP DP  RH WIND       PRES   REMARKS
DALTON*        PTCLDY    72  72 100 CALM      30.01S
KENNESAW*      PTCLDY    77  70  78 CALM      30.02R
$$

GAZ059>098-102>109-240400-
CENTRAL GEORGIA

CITY           SKY/WX    TMP DP  RH WIND       PRES   REMARKS
AUGUSTA-BUSH   CLEAR     76  72  87 CALM      29.96S
AUGUSTA-DANIEL CLEAR     79  72  79 CALM      29.98S
COLUMBUS       CLEAR     81  72  74 W5        29.99S
MACON          CLEAR     76  76 100 CALM      29.99R
ROBINS AFB     CLEAR     76  76  99 CALM      29.99R


CITY           SKY/WX    TMP DP  RH WIND       PRES   REMARKS
LAGRANGE*      CLEAR     79  77  94 CALM      30.01S
SYLVANIA*      PTCLDY    81  78  92 S5        29.99S
MILLEDGEVILLE* CLEAR     63  63 100 CALM      29.98R
$$

GAZ099>101-110>166-240400-
SOUTH GEORGIA

CITY           SKY/WX    TMP DP  RH WIND       PRES   REMARKS
SAVANNAH       PTCLDY    81  75  82 S6        29.99S
VALDOSTA       CLEAR     81  72  74 SW3       30.02R
ALMA           CLEAR     76  70  82 CALM      29.99R
ST SIMONS      PTCLDY    83  76  79 S9        30.00S HX  91
FT STEWART     PTCLDY    80  75  87 CALM      29.99R
ALBANY         CLEAR     78  73  84 SW5       30.03R
HUNTER AFB     PTCLDY    81  77  87 S6        29.97F
MOODY AFB      CLEAR     81  78  91 SW7       30.01R
BRUNSWICK      PTCLDY    84  77  79 CALM      30.00S HX  94


CITY           SKY/WX    TMP DP  RH WIND       PRES   REMARKS
BAINBRIDGE*    CLEAR     79  77  94 CALM      30.02R
MOULTRIE*      CLEAR     77  73  88 CALM      30.03R
VIDALIA*         N/A     79  72  78 CALM      29.99S
WAYCROSS*      CLEAR     85  78  78 S6        30.00R HX  96
DOUGLAS*       CLEAR     79  70  73 SW6       30.02R
$$


USA.gov is the U.S. government's official web portal to all federal, state and local government web resources and services.